Weather History for Crookston, MN

Change the Weather History Date:

Tuesday, October 9, 2012

  Actual Average Record
Temperature  
Mean Temperature 36 °F -  
Max Temperature 42 °F 56 °F 82 °F (2010)
Min Temperature 30 °F 35 °F 28 °F (2000)
Degree Days  
Heating Degree Days 29    
Moisture  
Dew Point 33 °F    
Average Humidity 90    
Maximum Humidity 100    
Minimum Humidity 66    
Precipitation  
Precipitation 0.02 in - - ()
Sea Level Pressure  
Sea Level Pressure 29.82 in    
Wind  
Wind Speed 13 mph (NW)    
Max Wind Speed 29 mph    
Max Gust Speed 33 mph    
Visibility 10 miles    
Events Snow    
Averages and records for this station are not official NWS values.
T = Trace of Precipitation, MM = Missing Value Source: NWS Daily Summary

Daily Weather History Graph

Daily Weather History Graph

Search for Another Location

Airport:

Trip Planner

Search our weather history database for the weather conditions in past years. The results will help you decide how hot, cold, wet, or windy it might be!

Date:

Astronomy

Oct. 09, 2012 Rise Set
Actual Time 7:37 AM CDT 6:48 PM CDT
Civil Twilight 7:06 AM CDT 7:19 PM CDT
Nautical Twilight 6:30 AM CDT 7:55 PM CDT
Astronomical Twilight 5:54 AM CDT 8:31 PM CDT
Moon 12:49 AM CDT (10/9) 3:39 PM CDT (10/9)
Length of Visible Light 12h 12m
Length of Day
11h 11m
Last Quarter, 36% of the Moon is Illuminated
Oct 9
Last Quarter
Oct 15
New
Oct 21
First Quarter
Oct 29
Full
Nov 6
Last Quarter

Hourly Weather History & Observations

Time (CDT) Temp. Windchill Dew Point Humidity Pressure Visibility Wind Dir Wind Speed Gust Speed Precip Events Conditions
12:14 AM 41.0 °F 34.7 °F 35.6 °F 81% 29.64 in 10.0 mi West 10.4 mph - N/A   Scattered Clouds
12:35 AM 39.2 °F 32.5 °F 35.6 °F 87% 29.64 in 10.0 mi West 10.4 mph - N/A   Clear
12:55 AM 39.2 °F 33.0 °F 33.8 °F 81% 29.64 in 10.0 mi West 9.2 mph - N/A   Clear
1:14 AM 37.4 °F 31.4 °F 33.8 °F 87% 29.64 in 10.0 mi West 8.1 mph - N/A   Clear
1:55 AM 37.4 °F 30.3 °F 33.8 °F 87% 29.65 in 10.0 mi West 10.4 mph - N/A   Scattered Clouds
2:14 AM 37.4 °F 30.3 °F 32.0 °F 81% 29.65 in 10.0 mi West 10.4 mph - N/A   Scattered Clouds
2:54 AM 37.4 °F 31.4 °F 33.8 °F 87% 29.65 in 10.0 mi West 8.1 mph - N/A   Overcast
3:14 AM 37.4 °F 30.8 °F 33.8 °F 87% 29.65 in 10.0 mi West 9.2 mph - N/A   Mostly Cloudy
3:35 AM 37.4 °F 30.8 °F 33.8 °F 87% 29.64 in 10.0 mi West 9.2 mph - N/A   Overcast
3:54 AM 37.4 °F 31.4 °F 33.8 °F 87% 29.65 in 10.0 mi West 8.1 mph - N/A   Overcast
4:14 AM 37.4 °F 30.8 °F 33.8 °F 87% 29.65 in 10.0 mi West 9.2 mph - N/A   Overcast
4:35 AM 37.4 °F 30.3 °F 33.8 °F 87% 29.65 in 10.0 mi West 10.4 mph - N/A   Overcast
4:54 AM 37.4 °F 29.8 °F 33.8 °F 87% 29.65 in 10.0 mi West 11.5 mph - N/A   Overcast
5:14 AM 37.4 °F 29.8 °F 33.8 °F 87% 29.66 in 10.0 mi West 11.5 mph - N/A   Overcast
5:35 AM 37.4 °F 30.8 °F 33.8 °F 87% 29.66 in 10.0 mi West 9.2 mph - N/A   Overcast
5:54 AM 37.4 °F 30.3 °F 33.8 °F 87% 29.66 in 10.0 mi West 10.4 mph - N/A   Overcast
6:14 AM 37.4 °F 30.8 °F 33.8 °F 87% 29.66 in 10.0 mi West 9.2 mph - N/A   Overcast
6:35 AM 37.4 °F 30.8 °F 35.6 °F 93% 29.66 in 10.0 mi West 9.2 mph - N/A   Overcast
6:54 AM 37.4 °F 30.8 °F 35.6 °F 93% 29.67 in 10.0 mi West 9.2 mph - N/A   Overcast
7:15 AM 37.4 °F 29.8 °F 35.6 °F 93% 29.67 in 7.0 mi WNW 11.5 mph - N/A   Overcast
7:35 AM 37.4 °F 29.3 °F 35.6 °F 93% 29.68 in 7.0 mi WNW 12.7 mph - N/A Snow Light Snow
7:54 AM 35.6 °F 25.2 °F 33.8 °F 93% 29.69 in 10.0 mi NNW 18.4 mph 25.3 mph N/A   Overcast
8:15 AM 35.6 °F 25.5 °F 33.8 °F 93% 29.70 in 10.0 mi NNW 17.3 mph - N/A   Overcast
8:35 AM 33.8 °F 21.6 °F 33.8 °F 100% 29.71 in 7.0 mi NNW 23.0 mph 26.5 mph N/A   Overcast
8:54 AM 35.6 °F 24.5 °F 33.8 °F 93% 29.72 in 7.0 mi North 20.7 mph 25.3 mph N/A   Overcast
9:15 AM 35.6 °F 24.2 °F 33.8 °F 93% 29.74 in 10.0 mi North 21.9 mph 26.5 mph N/A   Overcast
9:34 AM 35.6 °F 23.4 °F 33.8 °F 93% 29.76 in 10.0 mi North 25.3 mph 28.8 mph N/A   Overcast
9:54 AM 35.6 °F 24.2 °F 35.6 °F 100% 29.77 in 10.0 mi North 21.9 mph 32.2 mph N/A   Mostly Cloudy
10:15 AM 35.6 °F 24.5 °F 35.6 °F 100% 29.79 in 10.0 mi North 20.7 mph 26.5 mph N/A   Mostly Cloudy
10:34 AM 35.6 °F 24.2 °F 35.6 °F 100% 29.80 in 10.0 mi North 21.9 mph 27.6 mph N/A   Mostly Cloudy
10:55 AM 37.4 °F 26.1 °F 35.6 °F 93% 29.81 in 10.0 mi North 24.2 mph 31.1 mph N/A   Mostly Cloudy
11:15 AM 37.4 °F 26.1 °F 33.8 °F 87% 29.82 in 10.0 mi North 24.2 mph 28.8 mph N/A   Mostly Cloudy
11:34 AM 37.4 °F 26.1 °F 33.8 °F 87% 29.83 in 10.0 mi North 24.2 mph 32.2 mph N/A   Mostly Cloudy
11:55 AM 39.2 °F 27.6 °F 33.8 °F 81% 29.84 in 10.0 mi North 28.8 mph 33.4 mph N/A   Overcast
12:15 PM 39.2 °F 28.5 °F 33.8 °F 81% 29.84 in 10.0 mi North 24.2 mph - N/A   Mostly Cloudy
12:34 PM 42.8 °F 33.3 °F 33.8 °F 70% 29.85 in 10.0 mi NNW 24.2 mph 31.1 mph N/A   Scattered Clouds
12:55 PM 41.0 °F 31.1 °F 33.8 °F 76% 29.86 in 10.0 mi NNW 23.0 mph 27.6 mph N/A   Scattered Clouds
1:14 PM 41.0 °F 31.4 °F 35.6 °F 81% 29.86 in 10.0 mi NNW 21.9 mph 29.9 mph N/A   Mostly Cloudy
1:34 PM 39.2 °F 30.2 °F 30.2 °F 70% 29.87 in 10.0 mi NNW 17.3 mph - N/A   Mostly Cloudy
1:55 PM 35.6 °F 24.5 °F 33.8 °F 93% 29.88 in 3.0 mi North 20.7 mph 32.2 mph N/A   Mostly Cloudy
2:14 PM 35.6 °F 27.5 °F 33.8 °F 93% 29.88 in 7.0 mi North 11.5 mph - N/A   Mostly Cloudy
2:34 PM 39.2 °F 31.6 °F 35.6 °F 87% 29.89 in 10.0 mi NNW 12.7 mph - N/A   Overcast
2:55 PM 41.0 °F 31.6 °F 33.8 °F 76% 29.89 in 10.0 mi NNW 20.7 mph 26.5 mph N/A   Mostly Cloudy
3:14 PM 39.2 °F 29.6 °F 32.0 °F 75% 29.90 in 10.0 mi NW 19.6 mph 25.3 mph N/A   Mostly Cloudy
3:35 PM 37.4 °F 28.5 °F 33.8 °F 87% 29.91 in 10.0 mi North 15.0 mph 24.2 mph N/A   Mostly Cloudy
3:55 PM 39.2 °F 32.0 °F 33.8 °F 81% 29.91 in 10.0 mi North 11.5 mph - N/A   Mostly Cloudy
4:14 PM 42.8 °F 35.4 °F 32.0 °F 66% 29.91 in 10.0 mi NNW 15.0 mph - N/A   Mostly Cloudy
4:35 PM 39.2 °F 31.6 °F 33.8 °F 81% 29.92 in 10.0 mi North 12.7 mph - N/A   Light Drizzle
4:55 PM 35.6 °F 24.2 °F 33.8 °F 93% 29.94 in 5.0 mi North 21.9 mph 26.5 mph 0.01 in   Overcast
5:14 PM 33.8 °F 24.3 °F 33.8 °F 100% 29.94 in 7.0 mi North 13.8 mph - 0.01 in   Mostly Cloudy
5:35 PM 35.6 °F 26.6 °F 33.8 °F 93% 29.94 in 10.0 mi NNW 13.8 mph - 0.01 in   Overcast
5:55 PM 35.6 °F 26.6 °F 35.6 °F 100% 29.95 in 10.0 mi NNW 13.8 mph 19.6 mph N/A   Mostly Cloudy
6:14 PM 35.6 °F 26.2 °F 35.6 °F 100% 29.95 in 10.0 mi NNW 15.0 mph - N/A   Scattered Clouds
6:35 PM 35.6 °F 26.2 °F 33.8 °F 93% 29.96 in 10.0 mi North 15.0 mph - N/A   Scattered Clouds
6:55 PM 33.8 °F 25.8 °F 33.8 °F 100% 29.96 in 10.0 mi NNW 10.4 mph - N/A   Scattered Clouds
7:14 PM 33.8 °F 27.0 °F 33.8 °F 100% 29.97 in 10.0 mi NNW 8.1 mph - N/A   Scattered Clouds
7:35 PM 32.0 °F 25.6 °F 32.0 °F 100% 29.97 in 10.0 mi NNW 6.9 mph - N/A   Clear
7:55 PM 32.0 °F 26.4 °F 30.2 °F 93% 29.97 in 10.0 mi NW 5.8 mph - N/A   Clear
8:14 PM 32.0 °F 26.4 °F 30.2 °F 93% 29.98 in 10.0 mi NNW 5.8 mph - N/A   Scattered Clouds
8:35 PM 32.0 °F 28.7 °F 30.2 °F 93% 29.99 in 10.0 mi NW 3.5 mph - N/A   Mostly Cloudy
8:55 PM 32.0 °F 27.5 °F 30.2 °F 93% 29.99 in 10.0 mi NW 4.6 mph - N/A   Scattered Clouds
9:14 PM 30.2 °F 24.3 °F 30.2 °F 100% 29.99 in 10.0 mi WNW 5.8 mph - N/A   Scattered Clouds
9:35 PM 32.0 °F 26.4 °F 30.2 °F 93% 29.99 in 10.0 mi WNW 5.8 mph - N/A   Mostly Cloudy
9:55 PM 30.2 °F 24.3 °F 30.2 °F 100% 29.99 in 10.0 mi WNW 5.8 mph - N/A   Scattered Clouds
10:14 PM 30.2 °F 24.3 °F 30.2 °F 100% 29.99 in 10.0 mi WNW 5.8 mph - N/A   Mostly Cloudy
10:35 PM 32.0 °F 27.5 °F 30.2 °F 93% 29.99 in 10.0 mi WNW 4.6 mph - N/A   Overcast
10:54 PM 32.0 °F 27.5 °F 30.2 °F 93% 29.99 in 10.0 mi NW 4.6 mph - N/A   Mostly Cloudy
11:14 PM 30.2 °F 24.3 °F 30.2 °F 100% 29.99 in 10.0 mi WNW 5.8 mph - N/A   Scattered Clouds
11:35 PM 30.2 °F 24.3 °F 28.4 °F 93% 30.00 in 10.0 mi WNW 5.8 mph - N/A   Clear
11:54 PM 30.2 °F 25.4 °F 28.4 °F 93% 30.00 in 10.0 mi WNW 4.6 mph - N/A   Scattered Clouds